OpenBCM V1.13 (Linux)

Packet Radio Mailbox

DB0FHN

[JN59NK Nuernberg]

 Login: GUEST





  
I6KZR  > KEPLER   09.03.03 08:45l 1460 Lines 39193 Bytes #999 (0) @ WW
BID : 27775_IK6WID
Read: DB0FHN GUEST
Subj: Old Istantrak Keplerians #066
Path: DB0FHN<DB0RGB<DB0MRW<DB0PV<DB0FSG<IN3TRX<IW3AQL<I4UKI<I6ZLO<IK6WID
Sent: 030307/2303Z @:IK6WID.#AP.IMAR.ITA.EU #:27775 [MONTE URANO]  FBB7.00i
From: I6KZR@IK6WID.#AP.IMAR.ITA.EU
To  : KEPLER@WW


Satellite: OSCAR 7
Catalog number: 07530
Epoch time:      103066.53088062
Element set:     154 
Inclination:      101.7572 deg
RA of node:       114.1573 deg
Eccentricity:    0.0012271
Arg of perigee:    45.3793 deg
Mean anomaly:     314.8280 deg
Mean motion:   12.53564669 rev/day
Decay rate:   -2.9000E-007 rev/day^2
Epoch rev:           29531
Checksum:              288

Satellite: GOES 2
Catalog number: 10061
Epoch time:      103062.76944659
Element set:     106 
Inclination:       14.1377 deg
RA of node:        13.3235 deg
Eccentricity:    0.0012624
Arg of perigee:   200.8418 deg
Mean anomaly:     159.1157 deg
Mean motion:    0.99396945 rev/day
Decay rate:   -2.2100E-006 rev/day^2
Epoch rev:            3896
Checksum:              285

Satellite: GOES 3
Catalog number: 10953
Epoch time:      103065.88853155
Element set:     944 
Inclination:       13.4178 deg
RA of node:        17.1087 deg
Eccentricity:    0.0005985
Arg of perigee:   344.3009 deg
Mean anomaly:      15.6891 deg
Mean motion:    1.00279620 rev/day
Decay rate:   -9.8999E-007 rev/day^2
Epoch rev:            4366
Checksum:              330

Satellite: GOES 6
Catalog number: 14050
Epoch time:      103063.00530959
Element set:     428 
Inclination:       10.4192 deg
RA of node:        35.4742 deg
Eccentricity:    0.0004593
Arg of perigee:   345.1505 deg
Mean anomaly:      14.8975 deg
Mean motion:    1.00306906 rev/day
Decay rate:    2.2999E-007 rev/day^2
Epoch rev:           13077
Checksum:              283

Satellite: OSCAR 10
Catalog number: 14129
Epoch time:      103053.29347507
Element set:     920 
Inclination:       25.9661 deg
RA of node:       163.6642 deg
Eccentricity:    0.6025305
Arg of perigee:   329.8586 deg
Mean anomaly:       6.1874 deg
Mean motion:    2.05867335 rev/day
Decay rate:   -1.3500E-006 rev/day^2
Epoch rev:           12014
Checksum:              290

Satellite: OSCAR 11 (UoSA
Catalog number: 14781
Epoch time:      103066.53604112
Element set:     89 
Inclination:       98.1190 deg
RA of node:        40.5924 deg
Eccentricity:    0.0009662
Arg of perigee:   148.9417 deg
Mean anomaly:     211.2366 deg
Mean motion:   14.78043941 rev/day
Decay rate:    1.7430E-005 rev/day^2
Epoch rev:            1874
Checksum:              300

Satellite: NOAA 10
Catalog number: 16969
Epoch time:      103066.58593975
Element set:     688 
Inclination:       98.7317 deg
RA of node:        60.6632 deg
Eccentricity:    0.0013378
Arg of perigee:    40.2200 deg
Mean anomaly:     319.9967 deg
Mean motion:   14.27070682 rev/day
Decay rate:    1.8499E-006 rev/day^2
Epoch rev:           85633
Checksum:              359

Satellite: GOES 7
Catalog number: 17561
Epoch time:      103065.34493427
Element set:     878 
Inclination:        7.6311 deg
RA of node:        55.4507 deg
Eccentricity:    0.0005432
Arg of perigee:   264.8245 deg
Mean anomaly:     147.8010 deg
Mean motion:    1.00257206 rev/day
Decay rate:    4.1000E-007 rev/day^2
Epoch rev:            4190
Checksum:              268

Satellite: COSMOS 1861
Catalog number: 18129
Epoch time:      103066.27544030
Element set:     212 
Inclination:       82.9265 deg
RA of node:       134.2096 deg
Eccentricity:    0.0011169
Arg of perigee:   172.8774 deg
Mean anomaly:     187.2541 deg
Mean motion:   13.72702546 rev/day
Decay rate:    6.7000E-007 rev/day^2
Epoch rev:           78680
Checksum:              315

Satellite: EUTELSAT 1-F4 
Catalog number: 18351
Epoch time:      103059.07635020
Element set:     44 
Inclination:        7.2160 deg
RA of node:        58.6101 deg
Eccentricity:    0.0006917
Arg of perigee:   200.9393 deg
Mean anomaly:     159.1775 deg
Mean motion:    0.98687115 rev/day
Decay rate:    1.3000E-007 rev/day^2
Epoch rev:            4277
Checksum:              282

Satellite: NOAA 11
Catalog number: 19531
Epoch time:      103066.55857867
Element set:     525 
Inclination:       98.8993 deg
RA of node:       147.8821 deg
Eccentricity:    0.0011877
Arg of perigee:   150.9144 deg
Mean anomaly:     209.2694 deg
Mean motion:   14.14545356 rev/day
Decay rate:    2.0299E-006 rev/day^2
Epoch rev:           74520
Checksum:              348

Satellite: ASTRA 1A
Catalog number: 19688
Epoch time:      103062.90298781
Element set:     584 
Inclination:        1.4267 deg
RA of node:        94.6968 deg
Eccentricity:    0.0004002
Arg of perigee:   238.8547 deg
Mean anomaly:     157.9372 deg
Mean motion:    1.00271478 rev/day
Decay rate:    2.2999E-007 rev/day^2
Epoch rev:            3233
Checksum:              332

Satellite: OSCAR 14 (UOSA
Catalog number: 20437
Epoch time:      103066.55673417
Element set:     180 
Inclination:       98.2685 deg
RA of node:       109.3556 deg
Eccentricity:    0.0011026
Arg of perigee:   146.5647 deg
Mean anomaly:     213.6252 deg
Mean motion:   14.31243244 rev/day
Decay rate:    1.4600E-006 rev/day^2
Epoch rev:           68492
Checksum:              299

Satellite: OSCAR 15 (UOSA
Catalog number: 20438
Epoch time:      103064.62977831
Element set:     788 
Inclination:       98.2457 deg
RA of node:        96.5767 deg
Eccentricity:    0.0009864
Arg of perigee:   163.0425 deg
Mean anomaly:     197.1090 deg
Mean motion:   14.30201513 rev/day
Decay rate:    8.1000E-007 rev/day^2
Epoch rev:           68431
Checksum:              324

Satellite: OSCAR 16 (PACS
Catalog number: 20439
Epoch time:      103064.68159508
Element set:     860 
Inclination:       98.3144 deg
RA of node:       119.3435 deg
Eccentricity:    0.0011165
Arg of perigee:   159.2957 deg
Mean anomaly:     200.8705 deg
Mean motion:   14.31477311 rev/day
Decay rate:    1.5399E-006 rev/day^2
Epoch rev:           68469
Checksum:              329

Satellite: OSCAR 17 (DOVE
Catalog number: 20440
Epoch time:      103064.73745692
Element set:     736 
Inclination:       98.3358 deg
RA of node:       123.3255 deg
Eccentricity:    0.0010856
Arg of perigee:   157.8296 deg
Mean anomaly:     202.3356 deg
Mean motion:   14.31755431 rev/day
Decay rate:    1.3100E-006 rev/day^2
Epoch rev:           68477
Checksum:              311

Satellite: OSCAR 18 (WEBE
Catalog number: 20441
Epoch time:      103065.84972995
Element set:     27 
Inclination:       98.3306 deg
RA of node:       123.5928 deg
Eccentricity:    0.0011920
Arg of perigee:   155.6562 deg
Mean anomaly:     204.5187 deg
Mean motion:   14.31559244 rev/day
Decay rate:    1.5099E-006 rev/day^2
Epoch rev:           68491
Checksum:              329

Satellite: OSCAR 19 (LUSA
Catalog number: 20442
Epoch time:      103065.68652224
Element set:     978 
Inclination:       98.3442 deg
RA of node:       126.4894 deg
Eccentricity:    0.0011895
Arg of perigee:   155.3055 deg
Mean anomaly:     204.8700 deg
Mean motion:   14.31722566 rev/day
Decay rate:    1.5299E-006 rev/day^2
Epoch rev:           68494
Checksum:              336

Satellite: JAS 1B (FUJI 2
Catalog number: 20480
Epoch time:      103065.83872885
Element set:     467 
Inclination:       99.0482 deg
RA of node:        25.5232 deg
Eccentricity:    0.0540294
Arg of perigee:   327.0591 deg
Mean anomaly:      29.7905 deg
Mean motion:   12.83330884 rev/day
Decay rate:   -9.9999E-009 rev/day^2
Epoch rev:           61260
Checksum:              349

Satellite: HST
Catalog number: 20580
Epoch time:      103066.15486111
Element set:     349 
Inclination:       28.4674 deg
RA of node:       290.3207 deg
Eccentricity:    0.0003958
Arg of perigee:    89.8252 deg
Mean anomaly:      35.8674 deg
Mean motion:   14.97895765 rev/day
Decay rate:    3.6569E-005 rev/day^2
Epoch rev:           50512
Checksum:              336

Satellite: EUTELSAT 2-F1
Catalog number: 20777
Epoch time:      103065.56937573
Element set:     42 
Inclination:        3.5412 deg
RA of node:        84.3935 deg
Eccentricity:    0.0001805
Arg of perigee:   309.2723 deg
Mean anomaly:      51.0970 deg
Mean motion:    1.00267422 rev/day
Decay rate:    9.9999E-009 rev/day^2
Epoch rev:            2626
Checksum:              305

Satellite: FENGYUN 1B
Catalog number: 20788
Epoch time:      103065.87492224
Element set:     897 
Inclination:       99.0280 deg
RA of node:        47.8974 deg
Eccentricity:    0.0016143
Arg of perigee:   182.2259 deg
Mean anomaly:     177.8838 deg
Mean motion:   14.02144788 rev/day
Decay rate:    3.6100E-006 rev/day^2
Epoch rev:           63982
Checksum:              346

Satellite: EUTELSAT 2-F2
Catalog number: 21056
Epoch time:      103065.92762154
Element set:     623 
Inclination:        2.7710 deg
RA of node:        87.7384 deg
Eccentricity:    0.0003948
Arg of perigee:   294.7501 deg
Mean anomaly:     164.1065 deg
Mean motion:    1.00274375 rev/day
Decay rate:    1.2100E-006 rev/day^2
Epoch rev:            3204
Checksum:              266

Satellite: INFORMATOR 1
Catalog number: 21087
Epoch time:      103064.76802334
Element set:     606 
Inclination:       82.9431 deg
RA of node:       306.1529 deg
Eccentricity:    0.0033926
Arg of perigee:   206.2802 deg
Mean anomaly:     153.6634 deg
Mean motion:   13.74928038 rev/day
Decay rate:    6.3999E-007 rev/day^2
Epoch rev:           60697
Checksum:              325

Satellite: COSMOS 2123
Catalog number: 21089
Epoch time:      103065.77501658
Element set:     495 
Inclination:       82.9247 deg
RA of node:       169.3595 deg
Eccentricity:    0.0027599
Arg of perigee:   241.1551 deg
Mean anomaly:     118.6834 deg
Mean motion:   13.74405891 rev/day
Decay rate:    6.2999E-007 rev/day^2
Epoch rev:           60601
Checksum:              356

